Wetbulb
56.04 55.82 55.43 54.70 54.30 54.74 55.25 55.30 54.16 54.23 54.80 55.57 55.54 55.54 55.51 55.36 55.20 55.13 54.89 54.50 54.08 53.72 53.47 53.20 52.53 51.63 50.44 48.64 47.70 47.07 46.48 46.06 45.67 45.07 44.65 44.90 45.53 45.35 44.86 44.20 43.76 43.69 43.76 44.13 44.12 44.12 43.92 43.59 43.28 42.96 42.49 41.44 41.15 40.66 40.38 40.59 40.26 40.26 40.38 40.42 40.25 39.72 39.48 39.67 39.38 38.51 37.89 37.89 38.56
55.94 55.59 54.84 53.06 52.95 53.96 54.98 54.97 54.18 53.88 54.25 55.43 55.60 55.65 55.59 55.43 55.31 55.31 55.09 54.73 54.62 54.44 54.12 53.78 52.70 51.74 50.56 48.98 47.94 47.26 46.83 46.31 45.72 45.19 44.79 44.80 45.30 45.25 44.82 44.32 43.71 43.76 43.93 44.19 44.12 44.39 44.35 43.60 43.36 43.20 42.76 41.68 41.32 41.07 40.91 40.55 40.71 40.63 40.26 40.09 39.71 39.38 39.36 39.78 39.29 38.67 38.22 38.36 38.45
56.15 55.80 55.36 54.67 54.64 54.87 55.19 55.43 55.10 54.57 54.31 54.82 55.45 55.56 55.53 55.58 55.55 55.42 55.42 55.23 54.98 54.63 54.31 53.97 53.05 51.88 50.58 49.22 48.45 47.84 47.41 46.97 46.20 45.61 45.30 45.22 45.12 45.01 44.65 44.39 43.61 43.38 43.50 43.97 44.24 44.43 44.43 43.85 43.79 43.43 43.08 42.78 42.13 41.68 41.03 39.68 39.68 39.97 40.09 39.59 39.10 39.09 39.36 40.06 39.07 38.65 38.66 38.97 38.32
56.17 56.02 55.71 55.21 54.72 54.77 55.13 55.69 55.39 54.85 54.61 54.93 55.01 55.09 55.15 55.40 55.40 55.40 55.34 54.90 54.34 54.18 54.15 54.10 53.65 52.44 51.14 49.77 48.62 48.00 47.41 46.58 46.19 45.84 45.47 45.35 45.09 44.66 44.21 43.75 43.46 43.35 43.44 43.73 43.91 43.79 43.69 43.62 44.14 44.01 43.48 42.54 41.68 41.44 41.03 39.73 38.64 39.14 39.72 39.08 38.76 38.83 39.23 39.68 39.10 39.07 39.25 39.26 38.35
56.21 56.22 56.16 55.88 55.17 55.02 55.39 55.77 55.44 55.11 54.95 55.10 55.02 55.13 55.16 55.30 55.24 55.10 54.83 54.35 54.37 54.23 53.96 53.46 53.65 53.01 51.89 50.27 48.76 47.79 47.20 46.40 45.15 45.41 45.86 45.35 45.02 44.42 43.77 42.97 43.12 43.16 43.09 42.98 43.18 43.10 43.06 42.99 44.11 43.98 42.97 41.60 41.48 40.79 39.97 38.68 38.24 38.62 39.03 38.75 38.60 39.04 39.60 39.51 39.18 39.09 38.98 38.91 38.16
56.28 56.37 56.42 56.37 55.51 55.40 55.53 55.88 55.37 55.07 55.09 55.21 54.97 54.73 54.81 55.10 55.02 54.76 54.54 54.51 54.46 53.77 52.62 51.11 51.45 51.53 51.02 49.85 48.67 47.84 47.33 46.70 45.99 45.83 45.86 45.25 45.04 44.30 43.36 42.57 42.57 42.65 42.73 42.62 42.54 42.50 42.58 42.78 43.80 43.45 42.42 41.05 40.36 39.66 38.96 38.48 38.62 38.64 38.56 38.54 38.42 38.57 39.07 39.26 38.97 38.57 38.32 38.24 38.01
56.32 56.29 56.24 56.27 55.73 55.42 55.51 55.66 55.46 55.10 54.95 54.99 54.38 54.20 54.32 54.70 54.59 54.35 54.10 54.33 54.16 53.28 51.81 50.38 50.38 50.81 50.81 49.96 48.92 48.13 47.53 47.17 46.43 45.77 45.31 45.30 44.84 44.08 43.25 42.64 42.33 42.37 42.38 42.29 42.25 42.21 42.29 42.46 43.50 43.23 42.12 41.10 41.19 40.00 38.90 39.21 39.44 39.34 39.07 38.91 38.39 38.48 38.60 38.46 38.39 38.33 38.22 38.04 37.74
56.24 56.16 56.11 56.14 55.89 55.60 55.34 55.26 55.38 55.02 54.69 54.68 54.32 53.94 53.83 53.99 54.03 53.81 53.69 53.72 53.81 53.14 52.32 51.44 51.24 51.11 50.88 50.43 49.48 48.54 47.68 47.11 46.51 45.79 45.07 44.89 44.04 43.40 42.85 42.36 42.25 42.29 42.29 42.42 42.49 42.49 42.66 43.12 43.58 43.29 42.55 41.81 42.26 41.18 39.94 39.50 39.90 40.08 40.04 39.49 39.07 38.77 38.78 38.67 38.38 38.40 38.39 37.96 37.80
56.05 56.00 55.92 56.00 55.92 55.72 55.47 55.27 55.19 54.94 54.69 54.39 54.10 53.74 53.56 53.47 53.51 53.43 53.35 53.41 53.33 53.07 52.78 52.33 51.43 50.78 50.32 50.04 49.49 48.77 48.00 47.43 46.89 46.14 45.23 44.48 43.69 43.17 42.92 42.60 42.54 42.62 42.79 43.08 43.24 43.29 43.50 44.00 44.21 44.05 43.70 43.22 43.07 42.02 40.91 40.29 40.32 40.43 40.63 40.99 40.65 40.07 39.51 39.51 38.91 38.45 38.15 38.06 38.24
55.50 55.67 55.78 55.75 55.57 55.57 55.40 55.30 55.11 54.85 54.43 54.18 53.85 53.35 52.79 51.60 52.27 52.96 53.46 53.60 53.12 52.81 52.67 52.59 51.58 50.72 49.94 49.57 49.32 48.79 48.15 47.55 47.21 46.51 45.67 44.74 44.03 43.81 43.93 43.95 43.61 43.53 43.75 43.96 44.05 44.05 44.17 44.57 44.46 44.26 43.96 43.51 43.44 42.61 41.76 41.16 41.14 41.05 41.23 41.62 41.58 40.72 39.84 39.59 38.89 38.45 38.25 38.32 38.45
55.06 55.19 55.46 55.60 55.34 55.16 54.94 55.04 55.01 54.84 54.62 54.40 53.95 53.55 52.81 51.61 52.09 52.65 53.14 53.20 52.86 52.49 52.27 52.46 51.56 50.66 49.89 49.55 49.38 48.81 48.07 47.43 47.17 46.79 46.13 45.29 44.39 44.35 44.75 44.92 44.73 44.72 44.73 44.68 44.59 44.63 44.76 44.92 44.60 44.32 44.21 44.12 44.05 43.50 42.53 41.48 41.50 41.59 41.63 41.47 40.87 40.51 40.10 39.51 39.20 38.86 38.72 38.57 38.58
54.81 55.01 55.20 55.33 55.19 55.10 54.86 54.83 55.08 55.00 54.80 54.63 54.32 54.00 53.70 53.30 53.08 52.75 52.60 52.64 52.37 52.24 52.17 52.01 51.43 50.69 50.17 49.97 49.61 48.83 47.92 47.18 46.68 46.41 46.14 45.90 45.15 45.05 45.39 45.78 45.51 45.44 45.28 45.21 45.22 45.22 45.32 45.21 44.90 44.83 44.76 44.60 44.59 44.36 43.59 42.16 42.10 42.12 41.84 41.23 40.59 40.28 39.95 39.66 39.45 39.42 39.36 39.12 38.76
54.66 54.89 55.00 55.09 54.98 54.84 54.78 54.81 55.07 55.16 55.03 54.78 54.70 54.48 54.38 54.11 53.29 52.72 52.33 52.33 52.13 52.30 52.41 51.96 51.24 50.69 50.34 50.21 49.67 49.07 48.17 47.19 46.29 46.07 45.98 45.95 45.73 45.60 45.79 46.33 46.23 46.05 45.80 45.75 45.95 45.95 45.99 45.66 45.48 45.35 45.22 45.09 45.12 44.92 44.33 43.10 42.83 42.61 42.25 41.51 40.79 40.47 40.19 39.65 39.52 39.50 39.65 39.64 39.16
54.33 54.54 54.77 54.87 54.82 54.74 54.72 54.68 54.95 55.14 55.17 54.97 55.08 55.02 54.92 54.70 53.63 52.97 52.55 52.69 52.54 52.65 52.54 51.99 51.06 50.59 50.34 49.87 49.36 48.68 47.83 46.91 46.06 45.53 45.53 45.99 46.18 46.12 46.12 46.76 46.82 46.76 46.44 46.34 46.55 46.52 46.45 46.34 46.22 46.11 46.02 45.70 45.41 45.01 44.46 43.52 43.21 42.90 42.57 42.10 41.35 40.99 40.75 40.43 40.12 39.91 39.57 39.26 39.27
54.08 54.37 54.51 54.73 54.62 54.73 54.83 54.65 55.02 55.13 55.17 55.22 55.28 55.33 55.33 55.22 54.14 53.33 52.93 53.07 52.91 52.83 52.78 52.30 51.59 50.67 49.77 49.15 48.59 47.81 47.09 46.36 45.64 45.35 45.44 45.93 46.52 46.51 46.53 46.89 47.25 47.22 47.21 47.09 47.20 47.13 47.11 47.10 47.19 47.11 46.76 46.25 45.53 45.06 44.61 44.06 43.79 43.56 43.46 43.17 42.49 42.00 41.52 41.13 40.79 40.43 40.03 39.56 39.47
54.05 54.24 54.47 54.54 54.51 54.60 54.71 54.72 55.04 55.14 55.26 55.36 55.46 55.52 55.58 55.52 55.03 54.13 53.39 53.18 53.15 53.17 52.85 52.36 51.83 50.96 49.54 47.68 47.35 46.86 46.45 46.02 45.53 45.43 45.67 46.35 46.85 47.05 46.98 47.10 47.52 47.87 47.95 47.87 47.84 47.84 47.86 48.06 48.22 47.98 47.39 46.74 46.05 45.53 45.00 44.52 44.35 44.25 44.19 43.98 43.39 42.97 42.40 41.68 41.18 40.87 40.67 40.23 40.14
54.03 54.25 54.57 54.51 54.44 54.51 54.63 54.73 55.04 55.06 55.25 55.28 55.45 55.66 55.69 55.71 55.68 54.72 53.60 53.12 53.39 53.28 52.80 52.28 51.96 50.93 49.14 46.66 46.08 46.06 46.08 45.95 45.67 45.70 46.06 46.75 47.19 47.36 47.38 47.68 48.20 48.70 49.06 48.98 48.81 48.69 48.58 48.47 48.53 48.04 47.44 46.75 46.26 45.79 45.30 44.82 44.85 44.72 44.49 44.28 43.84 43.46 42.88 41.89 41.54 41.35 41.23 40.75 40.66
54.04 54.30 54.67 54.77 54.81 54.91 54.92 54.82 54.93 54.99 55.07 55.25 55.48 55.80 56.09 56.08 56.08 55.41 54.51 53.52 53.54 53.15 52.70 52.12 51.75 50.73 48.96 46.76 45.66 45.66 45.89 45.98 45.78 45.98 46.53 47.25 47.70 47.95 48.16 48.69 49.26 49.79 50.16 50.12 49.90 49.63 49.21 48.63 48.11 47.60 47.03 46.34 45.97 45.72 45.47 45.10 44.92 44.63 44.50 44.25 43.93 43.63 43.14 42.46 42.02 41.91 41.68 41.32 41.31
54.31 54.50 54.68 54.81 55.08 55.30 55.38 55.19 55.47 55.41 55.38 55.37 55.76 56.04 56.32 56.34 56.09 55.80 55.29 54.45 53.49 52.81 52.51 51.98 51.04 49.91 48.47 46.69 46.06 45.64 45.68 46.03 46.01 46.16 46.59 47.27 47.90 48.44 49.06 49.79 50.23 50.45 50.54 50.53 50.47 50.40 50.01 49.03 47.88 47.17 46.54 45.90 45.53 45.34 45.22 44.91 44.72 44.43 44.31 44.15 43.86 43.57 43.20 42.90 42.54 42.43 42.36 42.17 42.21
55.02 54.94 54.87 55.07 55.21 55.47 55.54 55.58 55.89 56.03 56.07 56.14 56.39 56.41 56.47 56.70 56.40 55.91 55.41 54.68 53.47 52.70 52.38 51.81 50.66 49.38 48.08 46.83 46.44 46.15 46.12 46.50 46.36 46.50 46.78 47.29 47.87 48.60 49.61 50.54 50.50 50.46 50.40 50.51 50.74 50.89 50.45 49.25 47.74 46.94 46.40 45.82 45.26 44.95 44.61 44.37 44.34 44.22 44.14 44.15 43.98 43.68 43.29 43.01 42.81 42.75 42.77 42.95 43.12
55.68 55.52 55.51 55.67 55.70 55.77 55.87 56.05 56.21 56.29 56.45 56.54 56.60 56.56 56.54 56.71 56.62 56.25 55.91 55.70 54.13 52.98 52.29 51.79 51.04 49.98 48.88 47.65 47.03 46.79 46.71 46.76 46.87 46.98 47.11 47.43 47.71 48.47 49.54 50.59 50.47 50.31 50.19 50.43 50.73 50.69 50.15 48.95 47.83 47.37 46.87 45.93 45.37 44.89 44.45 44.17 44.30 44.38 44.43 44.64 44.47 44.13 43.70 43.43 43.11 42.99 43.12 43.46 43.83
56.15 56.27 56.27 56.19 56.18 56.16 56.07 56.11 56.11 56.17 56.21 56.29 56.34 56.36 56.24 56.27 56.35 56.46 56.50 56.57 55.46 54.47 53.47 52.23 51.59 50.88 50.04 48.70 47.96 47.39 47.13 47.04 47.11 47.18 47.41 47.63 47.90 48.54 49.33 50.15 50.15 50.03 50.01 50.25 50.37 50.07 49.32 48.42 47.94 47.74 47.40 46.60 45.77 45.12 44.69 44.30 44.47 44.55 44.76 45.02 44.98 44.72 44.38 44.04 43.78 43.70 43.61 43.95 44.24
56.67 56.82 56.82 56.66 56.58 56.06 55.74 55.98 56.15 56.13 56.03 56.05 56.08 56.02 56.03 56.06 56.32 56.60 56.96 57.09 56.01 55.11 54.31 53.10 52.58 51.81 50.83 49.64 48.58 47.86 47.48 47.42 47.34 47.25 47.36 47.65 48.08 48.55 49.09 49.66 49.79 49.64 49.65 49.87 49.95 49.73 49.27 48.56 48.16 48.03 47.68 47.09 46.52 45.77 45.03 44.64 44.60 44.81 45.10 45.14 45.23 45.19 45.01 44.71 44.53 44.36 44.32 44.45 44.62
56.94 56.94 57.07 57.27 56.92 56.66 56.49 56.33 56.23 56.03 55.91 55.77 55.77 55.85 55.95 56.13 56.36 56.43 56.61 56.75 56.04 55.21 54.38 53.49 52.74 51.94 51.05 50.22 49.12 48.36 48.06 47.90 47.65 47.41 47.24 47.37 48.11 48.62 49.05 49.47 49.65 49.75 49.72 49.92 49.28 48.88 48.62 48.53 48.49 48.17 47.68 47.09 46.60 46.21 45.72 45.33 45.38 45.33 45.45 45.32 45.36 45.40 45.44 45.18 44.88 44.75 44.66 44.62 44.58
56.83 56.78 56.94 57.25 57.06 56.94 56.75 56.50 56.23 55.98 55.80 55.84 55.80 55.82 55.93 56.06 56.26 56.26 56.13 56.03 55.58 54.92 54.07 53.14 52.42 51.78 51.33 50.65 49.64 49.05 48.82 48.67 48.36 47.94 47.49 47.42 48.20 48.83 49.37 49.75 49.93 49.98 49.82 48.94 46.42 45.56 45.79 46.64 47.82 48.17 47.86 47.23 46.65 46.51 46.34 46.03 46.03 45.90 45.76 45.58 45.44 45.40 45.31 45.19 44.88 44.71 44.54 44.41 44.41
56.83 56.68 56.67 56.94 57.15 57.03 56.77 56.52 56.25 56.04 55.92 55.88 55.67 55.59 55.69 55.92 56.14 56.12 56.08 55.74 55.73 55.10 54.26 53.48 52.49 51.21 50.38 50.53 49.96 49.55 49.33 49.26 48.97 48.59 48.20 48.21 48.61 49.20 49.70 49.99 50.17 50.27 49.79 48.04 45.01 44.20 44.61 45.43 45.83 46.15 46.83 47.85 47.18 46.74 46.65 46.65 46.52 46.34 46.03 45.85 45.36 45.06 44.67 44.50 44.45 44.24 44.28 44.12 44.08
56.74 56.61 56.65 56.89 57.07 57.00 56.91 56.75 56.52 56.19 56.04 55.90 55.57 55.53 55.64 56.02 56.27 56.26 56.16 56.07 56.48 56.02 55.13 54.31 52.73 50.41 49.05 50.18 50.02 49.85 49.76 49.80 49.67 49.39 49.31 49.14 49.36 49.51 49.70 50.09 50.33 50.56 49.84 47.05 45.01 44.42 44.56 44.70 44.25 44.49 45.49 47.89 47.72 47.41 47.14 47.18 46.96 46.56 46.07 45.55 44.94 44.46 44.12 44.07 43.98 43.85 43.65 43.44 43.45
56.85 56.72 56.60 56.71 56.68 56.90 57.01 57.07 56.75 56.45 56.15 56.00 55.68 55.64 55.69 55.92 56.01 56.11 56.13 56.48 56.87 56.50 55.89 55.26 53.32 51.34 50.09 50.16 50.09 50.08 50.14 50.20 50.03 49.77 49.50 49.37 49.59 49.69 49.80 50.10 50.42 50.20 48.81 46.14 45.19 44.69 44.33 43.84 43.49 43.37 43.92 45.45 47.84 48.10 47.57 47.26 46.78 46.29 45.68 44.94 44.47 44.13 44.00 44.04 44.17 43.96 43.53 43.03 42.74
56.71 56.70 56.62 56.56 56.42 56.63 56.90 57.06 56.94 56.67 56.46 56.27 56.08 55.91 55.76 55.66 55.86 56.05 56.17 56.45 56.61 56.57 56.26 55.58 53.84 52.16 50.79 50.09 50.13 50.14 50.15 49.98 49.83 49.52 49.21 49.03 49.43 49.61 49.85 50.18 50.68 49.57 47.41 44.65 44.51 44.19 43.79 43.43 43.03 42.64 42.79 44.06 47.04 48.25 48.28 47.49 46.67 46.02 45.29 44.81 44.51 44.26 44.08 44.00 44.17 44.05 43.75 43.08 42.49
56.51 56.59 56.53 56.49 56.43 56.59 56.65 56.91 57.03 57.03 56.88 56.67 56.31 55.77 55.60 55.54 55.81 56.04 56.28 56.32 56.39 56.16 55.57 54.48 52.79 51.40 50.36 49.95 50.15 50.17 50.09 49.96 49.48 49.22 48.91 48.96 49.22 49.53 49.99 50.14 51.53 50.78 48.13 43.78 43.78 43.65 43.52 43.25 42.80 42.22 41.79 41.99 44.84 47.25 48.42 47.72 46.85 46.03 45.33 45.03 44.81 44.38 43.96 43.83 43.88 43.88 43.67 43.37 42.62
56.24 56.37 56.57 56.44 56.48 56.40 56.51 56.71 57.07 57.18 57.14 56.88 56.15 55.74 55.53 55.54 55.72 55.97 56.21 56.42 55.82 54.29 52.77 52.01 51.04 50.20 49.68 49.69 49.84 49.86 49.79 49.40 48.91 48.73 48.77 48.90 48.73 49.54 50.66 51.62 52.71 51.61 48.54 43.33 43.24 43.29 43.34 43.25 42.75 42.04 41.34 40.59 43.30 46.34 48.47 48.12 47.27 46.43 45.68 45.25 44.81 44.39 44.09 43.88 43.71 43.67 43.62 43.45 42.78
55.90 56.22 56.41 56.44 56.51 56.49 56.57 56.63 56.84 56.91 56.82 56.46 56.07 55.73 55.56 55.67 55.96 56.22 56.30 56.08 54.82 52.71 50.70 50.15 49.88 49.40 49.03 48.87 49.11 49.16 49.08 48.69 48.52 48.60 48.99 49.43 50.02 50.79 51.61 52.44 53.22 51.75 48.32 42.93 42.93 42.93 43.02 43.02 42.57 41.91 41.12 40.02 42.26 45.44 47.89 48.17 47.40 46.60 45.77 45.16 44.77 44.34 44.05 43.88 43.75 43.67 43.54 43.41 42.99
55.55 55.86 56.05 56.26 56.38 56.51 56.56 56.39 56.16 55.99 55.86 55.80 55.77 55.74 55.70 55.89 56.09 56.22 56.16 55.66 54.23 52.27 50.39 49.68 49.25 48.83 48.51 48.35 48.50 48.51 48.51 48.34 48.38 48.52 48.83 49.76 50.88 51.70 52.35 52.69 53.63 51.25 47.05 42.47 42.29 42.29 42.47 42.61 42.30 41.82 40.98 39.92 42.34 45.31 47.58 48.08 47.71 46.87 45.72 44.94 44.52 44.17 43.96 43.67 43.67 43.71 43.66 43.41 43.16
55.22 55.38 55.54 55.86 56.12 56.10 56.05 55.52 55.09 54.76 54.57 54.75 55.10 55.40 55.69 56.00 56.01 55.86 55.57 54.82 53.47 51.73 50.21 49.42 49.11 48.77 48.52 48.45 48.42 48.38 48.16 47.94 48.79 49.54 50.34 51.06 51.79 52.35 52.73 53.50 54.21 50.75 45.64 42.02 41.66 41.75 41.93 42.12 42.03 41.77 41.11 39.94 42.64 45.43 47.27 47.77 47.40 46.56 45.51 44.60 44.26 44.00 43.83 43.71 43.66 43.58 43.50 43.29 43.03
54.62 54.70 54.85 55.05 55.18 55.05 54.67 54.11 53.86 53.70 53.78 54.14 54.50 54.75 55.21 55.62 55.72 55.56 54.68 52.80 51.37 50.41 49.67 48.84 48.62 48.49 48.41 48.46 48.60 48.51 48.43 48.48 49.59 50.43 50.97 51.75 52.35 52.51 52.74 53.41 53.85 49.58 44.28 42.11 41.75 41.66 41.71 41.80 41.76 41.50 41.09 40.59 43.40 45.61 46.92 47.23 46.87 46.07 45.07 44.29 43.90 43.60 43.39 43.53 43.45 43.36 43.20 42.98 42.77
53.68 53.80 53.81 54.08 53.89 53.55 53.13 52.80 52.76 52.94 53.15 53.34 53.37 53.46 53.76 54.61 54.73 54.22 52.83 50.16 49.72 49.55 49.38 48.54 48.28 48.15 48.15 48.24 48.47 48.47 48.70 49.72 50.25 50.88 51.48 51.95 52.42 52.83 52.96 53.27 53.35 48.90 43.74 42.24 42.02 41.93 41.84 41.75 41.44 41.04 41.04 41.85 44.20 45.61 46.42 46.69 46.34 45.72 44.80 44.01 43.48 43.00 42.65 42.81 42.69 42.57 42.52 42.36 42.26
53.13 53.53 53.71 53.52 52.94 52.56 52.21 52.22 52.43 52.48 52.38 52.07 51.89 51.93 52.23 52.88 52.70 51.99 50.84 49.55 49.86 49.65 49.08 48.51 48.16 48.07 48.25 48.38 48.74 49.18 49.76 50.47 50.79 51.17 51.50 51.66 52.25 52.65 52.87 52.81 53.25 49.30 44.20 41.88 41.97 42.02 41.93 41.71 41.16 40.76 40.99 42.84 44.57 45.47 45.88 46.15 45.98 45.41 44.57 43.55 42.61 42.07 41.76 41.84 41.66 41.62 41.53 41.41 40.83
53.75 54.07 54.02 53.50 52.85 52.32 52.10 52.09 52.26 52.12 51.81 51.18 50.69 50.60 50.82 51.26 50.91 50.37 49.74 49.34 50.13 49.92 49.18 48.69 48.43 48.47 48.78 49.26 49.63 49.93 50.29 51.02 50.99 51.23 51.55 51.79 52.15 52.42 52.55 52.36 52.89 50.20 46.05 41.79 41.43 41.48 41.57 41.57 40.80 40.40 40.99 43.39 44.57 45.30 45.53 45.53 45.36 44.87 44.07 43.09 41.73 40.97 40.62 40.20 40.24 40.11 39.75 39.22 38.63
54.53 54.53 54.26 53.56 52.94 52.50 52.31 52.22 52.21 52.03 51.62 51.00 50.51 50.37 50.59 50.86 50.65 50.46 50.14 50.09 50.93 50.64 49.98 49.54 49.27 49.36 49.54 49.50 49.91 50.09 50.49 51.22 51.28 51.29 51.61 52.19 51.79 51.07 50.66 51.73 52.17 50.47 46.82 41.61 40.66 40.57 40.84 40.98 40.40 40.04 40.63 42.90 44.71 45.26 45.27 45.14 44.65 43.98 43.12 41.99 40.72 39.32 38.01 37.36 37.68 37.59 37.28 36.82 37.68
54.96 54.79 54.44 53.92 53.38 52.98 52.74 52.46 52.41 52.19 51.92 51.47 51.27 51.14 51.15 51.17 50.65 50.65 50.90 51.39 51.83 51.62 51.14 50.62 50.26 50.22 49.91 49.02 49.88 50.47 50.79 51.15 51.51 51.43 51.30 51.43 50.53 48.68 48.00 50.43 51.28 49.57 45.87 40.71 39.58 39.67 40.08 40.45 40.22 39.96 40.61 43.10 44.63 45.13 45.10 44.84 44.16 43.04 41.85 40.72 39.14 37.19 35.56 35.07 35.37 35.29 35.15 35.05 35.98
55.27 54.88 54.35 54.00 53.72 53.40 53.03 52.75 52.57 52.41 52.19 51.90 51.88 51.68 51.44 51.19 51.15 51.41 51.90 52.40 52.30 52.26 51.87 51.30 50.98 50.80 50.32 49.12 50.20 50.88 50.97 50.62 50.16 49.94 49.53 48.72 48.27 46.82 46.19 48.50 49.08 47.14 43.54 39.44 38.80 38.98 39.60 40.19 40.15 40.07 40.67 42.80 44.29 44.83 44.84 44.62 43.72 42.46 41.01 39.65 37.79 36.11 34.84 34.26 34.00 33.83 33.70 33.85 34.24
MSLP
1012.59 1012.75 1012.87 1013.03 1013.15 1013.27 1013.31 1013.43 1013.51 1013.63 1013.79 1013.91 1014.07 1014.19 1014.31 1014.47 1014.63 1014.75 1014.87 1014.99 1015.11 1015.19 1015.31 1015.43 1015.55 1015.67 1015.91 1016.07 1016.31 1016.47 1016.67 1016.83 1016.99 1017.11 1017.19 1017.31 1017.43 1017.55 1017.67 1017.87 1017.99 1018.15 1018.31 1018.47 1018.59 1018.79 1019.03 1019.23 1019.43 1019.59 1019.79 1019.95 1020.07 1020.19 1020.31 1020.35 1020.47 1020.59 1020.67 1020.75 1020.83 1020.95 1021.03 1021.19 1021.19 1021.27 1021.35 1021.39 1021.39
1012.47 1012.55 1012.71 1012.87 1012.99 1013.07 1013.19 1013.31 1013.39 1013.51 1013.59 1013.71 1013.79 1013.91 1014.07 1014.23 1014.35 1014.47 1014.59 1014.75 1014.79 1014.91 1015.03 1015.19 1015.31 1015.47 1015.71 1015.91 1016.07 1016.23 1016.43 1016.59 1016.75 1016.91 1017.03 1017.11 1017.19 1017.31 1017.51 1017.67 1017.83 1017.95 1018.15 1018.31 1018.51 1018.71 1018.87 1019.15 1019.35 1019.59 1019.75 1019.91 1020.03 1020.19 1020.23 1020.27 1020.35 1020.47 1020.59 1020.63 1020.67 1020.75 1020.87 1020.99 1021.03 1021.03 1021.15 1021.19 1021.27
1012.27 1012.39 1012.51 1012.63 1012.79 1012.91 1013.03 1013.07 1013.19 1013.31 1013.39 1013.47 1013.59 1013.71 1013.83 1013.95 1014.07 1014.19 1014.31 1014.39 1014.51 1014.67 1014.83 1014.95 1015.11 1015.27 1015.47 1015.67 1015.83 1016.03 1016.19 1016.31 1016.51 1016.71 1016.83 1016.95 1017.03 1017.19 1017.39 1017.55 1017.71 1017.87 1018.03 1018.19 1018.39 1018.59 1018.79 1019.03 1019.23 1019.47 1019.59 1019.79 1019.95 1020.03 1020.15 1020.19 1020.27 1020.39 1020.47 1020.51 1020.55 1020.67 1020.79 1020.87 1020.91 1021.03 1021.11 1021.19 1021.31
1012.03 1012.15 1012.27 1012.43 1012.55 1012.63 1012.71 1012.75 1012.87 1013.03 1013.15 1013.27 1013.35 1013.51 1013.63 1013.75 1013.83 1013.91 1014.03 1014.19 1014.31 1014.47 1014.59 1014.71 1014.87 1015.03 1015.23 1015.47 1015.67 1015.83 1015.95 1016.11 1016.31 1016.47 1016.63 1016.79 1016.91 1017.07 1017.27 1017.47 1017.63 1017.83 1018.03 1018.19 1018.35 1018.55 1018.75 1018.91 1019.15 1019.31 1019.43 1019.59 1019.75 1019.87 1019.95 1020.07 1020.19 1020.31 1020.31 1020.39 1020.47 1020.59 1020.67 1020.75 1020.83 1020.95 1021.11 1021.19 1021.27
1011.83 1011.91 1012.03 1012.15 1012.23 1012.31 1012.39 1012.47 1012.59 1012.75 1012.91 1013.07 1013.23 1013.35 1013.43 1013.51 1013.59 1013.75 1013.87 1014.03 1014.15 1014.23 1014.31 1014.47 1014.59 1014.75 1014.95 1015.19 1015.43 1015.59 1015.75 1015.91 1016.15 1016.31 1016.47 1016.59 1016.79 1016.99 1017.19 1017.43 1017.63 1017.87 1018.03 1018.23 1018.43 1018.59 1018.75 1018.87 1019.03 1019.15 1019.31 1019.43 1019.55 1019.63 1019.75 1019.91 1020.11 1020.19 1020.27 1020.35 1020.47 1020.51 1020.59 1020.67 1020.79 1020.91 1021.03 1021.11 1021.23
1011.59 1011.67 1011.75 1011.87 1012.03 1012.15 1012.23 1012.31 1012.47 1012.59 1012.71 1012.87 1013.03 1013.11 1013.19 1013.27 1013.39 1013.51 1013.59 1013.71 1013.79 1013.91 1014.11 1014.31 1014.43 1014.59 1014.75 1014.99 1015.19 1015.39 1015.55 1015.75 1015.91 1016.11 1016.27 1016.47 1016.67 1016.91 1017.19 1017.47 1017.63 1017.87 1018.07 1018.27 1018.43 1018.55 1018.71 1018.83 1018.95 1019.07 1019.19 1019.31 1019.43 1019.51 1019.63 1019.79 1020.03 1020.15 1020.27 1020.39 1020.47 1020.51 1020.59 1020.67 1020.75 1020.87 1020.99 1021.07 1021.23
1011.35 1011.47 1011.59 1011.67 1011.83 1011.99 1012.07 1012.19 1012.31 1012.43 1012.59 1012.67 1012.79 1012.87 1012.87 1012.99 1013.11 1013.19 1013.31 1013.43 1013.51 1013.75 1013.95 1014.15 1014.31 1014.43 1014.59 1014.75 1015.03 1015.19 1015.35 1015.51 1015.71 1015.91 1016.07 1016.31 1016.59 1016.87 1017.15 1017.43 1017.63 1017.83 1018.03 1018.19 1018.35 1018.47 1018.59 1018.75 1018.87 1018.95 1019.03 1019.19 1019.31 1019.43 1019.55 1019.71 1019.91 1020.07 1020.27 1020.35 1020.47 1020.51 1020.63 1020.75 1020.83 1020.91 1021.03 1021.11 1021.19
1011.19 1011.31 1011.39 1011.47 1011.59 1011.75 1011.91 1012.03 1012.19 1012.35 1012.47 1012.55 1012.55 1012.59 1012.63 1012.75 1012.83 1012.91 1013.03 1013.23 1013.35 1013.51 1013.71 1013.91 1014.07 1014.19 1014.35 1014.55 1014.71 1014.91 1015.15 1015.31 1015.51 1015.75 1015.99 1016.23 1016.55 1016.83 1017.07 1017.31 1017.55 1017.75 1017.87 1017.99 1018.19 1018.31 1018.47 1018.59 1018.71 1018.79 1018.87 1019.03 1019.15 1019.27 1019.43 1019.59 1019.79 1019.99 1020.15 1020.27 1020.39 1020.51 1020.63 1020.75 1020.87 1021.03 1021.07 1021.19 1021.19
1010.99 1011.07 1011.19 1011.31 1011.43 1011.59 1011.75 1011.91 1012.03 1012.19 1012.27 1012.31 1012.31 1012.39 1012.47 1012.59 1012.63 1012.75 1012.87 1013.03 1013.11 1013.23 1013.39 1013.59 1013.75 1013.95 1014.15 1014.31 1014.47 1014.67 1014.87 1015.07 1015.31 1015.59 1015.91 1016.19 1016.47 1016.71 1016.95 1017.15 1017.35 1017.47 1017.59 1017.75 1017.91 1018.07 1018.23 1018.35 1018.47 1018.55 1018.67 1018.79 1018.95 1019.11 1019.31 1019.47 1019.71 1019.91 1020.03 1020.19 1020.35 1020.51 1020.63 1020.75 1020.87 1021.03 1021.15 1021.19 1021.19
1010.67 1010.83 1010.99 1011.15 1011.23 1011.39 1011.55 1011.75 1011.87 1011.95 1012.03 1012.11 1012.19 1012.27 1012.35 1012.47 1012.55 1012.59 1012.67 1012.75 1012.91 1013.07 1013.23 1013.31 1013.51 1013.75 1013.95 1014.11 1014.27 1014.47 1014.63 1014.87 1015.11 1015.39 1015.75 1016.03 1016.31 1016.47 1016.63 1016.83 1016.99 1017.19 1017.31 1017.43 1017.59 1017.75 1017.91 1018.11 1018.23 1018.31 1018.43 1018.55 1018.75 1018.95 1019.19 1019.43 1019.63 1019.83 1020.03 1020.19 1020.31 1020.51 1020.63 1020.67 1020.79 1020.91 1021.03 1021.11 1021.15
1010.35 1010.55 1010.71 1010.87 1011.03 1011.19 1011.35 1011.55 1011.67 1011.75 1011.87 1011.95 1012.03 1012.15 1012.27 1012.39 1012.47 1012.51 1012.59 1012.67 1012.87 1012.95 1013.03 1013.07 1013.27 1013.51 1013.75 1013.91 1014.03 1014.19 1014.47 1014.71 1014.91 1015.19 1015.47 1015.79 1016.03 1016.15 1016.27 1016.39 1016.55 1016.75 1016.87 1017.03 1017.23 1017.39 1017.59 1017.75 1017.87 1017.99 1018.15 1018.31 1018.51 1018.79 1019.11 1019.39 1019.63 1019.83 1019.99 1020.15 1020.31 1020.47 1020.59 1020.59 1020.59 1020.67 1020.75 1020.87 1020.99
1010.03 1010.19 1010.39 1010.59 1010.75 1010.95 1011.15 1011.31 1011.43 1011.55 1011.63 1011.75 1011.83 1011.95 1012.07 1012.19 1012.31 1012.39 1012.51 1012.63 1012.75 1012.75 1012.75 1012.87 1013.07 1013.27 1013.47 1013.59 1013.79 1013.99 1014.27 1014.51 1014.75 1014.99 1015.19 1015.43 1015.63 1015.79 1015.87 1015.99 1016.15 1016.27 1016.47 1016.63 1016.83 1017.03 1017.15 1017.31 1017.43 1017.59 1017.75 1018.03 1018.31 1018.63 1018.99 1019.31 1019.55 1019.71 1019.83 1019.99 1020.19 1020.35 1020.47 1020.47 1020.47 1020.47 1020.47 1020.63 1020.87
1009.75 1009.95 1010.11 1010.27 1010.47 1010.63 1010.87 1011.03 1011.11 1011.19 1011.35 1011.47 1011.59 1011.71 1011.83 1011.95 1012.11 1012.31 1012.47 1012.55 1012.59 1012.59 1012.63 1012.75 1012.91 1013.07 1013.19 1013.35 1013.59 1013.79 1014.03 1014.31 1014.55 1014.75 1014.87 1015.03 1015.23 1015.43 1015.51 1015.63 1015.75 1015.91 1016.07 1016.23 1016.43 1016.59 1016.75 1016.83 1016.95 1017.11 1017.39 1017.75 1018.19 1018.51 1018.79 1019.03 1019.23 1019.35 1019.47 1019.67 1019.91 1020.15 1020.27 1020.31 1020.39 1020.43 1020.47 1020.55 1020.71
1009.47 1009.59 1009.75 1009.91 1010.11 1010.31 1010.47 1010.63 1010.75 1010.87 1011.03 1011.11 1011.23 1011.39 1011.51 1011.67 1011.87 1012.07 1012.23 1012.31 1012.31 1012.35 1012.47 1012.59 1012.75 1012.87 1012.99 1013.11 1013.35 1013.59 1013.79 1014.03 1014.27 1014.47 1014.59 1014.71 1014.87 1015.07 1015.19 1015.31 1015.43 1015.59 1015.83 1016.03 1016.19 1016.31 1016.35 1016.43 1016.55 1016.75 1017.11 1017.55 1017.99 1018.31 1018.55 1018.67 1018.79 1018.87 1019.03 1019.27 1019.55 1019.83 1020.03 1020.15 1020.23 1020.31 1020.35 1020.39 1020.43
1009.03 1009.19 1009.31 1009.51 1009.75 1009.91 1010.07 1010.27 1010.35 1010.47 1010.59 1010.75 1010.87 1011.03 1011.19 1011.35 1011.55 1011.75 1011.91 1011.99 1012.03 1012.11 1012.31 1012.47 1012.59 1012.67 1012.79 1012.95 1013.15 1013.35 1013.59 1013.79 1013.99 1014.15 1014.31 1014.47 1014.59 1014.75 1014.87 1015.03 1015.19 1015.43 1015.63 1015.87 1015.99 1016.07 1016.11 1016.19 1016.31 1016.59 1016.99 1017.31 1017.59 1017.91 1018.07 1018.23 1018.35 1018.47 1018.63 1018.87 1019.19 1019.55 1019.75 1019.91 1019.99 1020.11 1020.15 1020.15 1020.11
1008.67 1008.75 1008.87 1009.07 1009.31 1009.47 1009.63 1009.83 1009.95 1010.07 1010.19 1010.31 1010.47 1010.63 1010.83 1010.95 1011.07 1011.31 1011.51 1011.59 1011.75 1011.91 1012.07 1012.23 1012.31 1012.47 1012.63 1012.79 1012.95 1013.15 1013.31 1013.55 1013.71 1013.87 1014.03 1014.15 1014.23 1014.39 1014.59 1014.83 1015.03 1015.31 1015.55 1015.75 1015.83 1015.91 1015.91 1015.99 1016.23 1016.51 1016.75 1016.91 1017.07 1017.27 1017.47 1017.71 1017.91 1018.15 1018.35 1018.59 1018.87 1019.15 1019.35 1019.51 1019.67 1019.75 1019.79 1019.79 1019.83
1008.31 1008.35 1008.51 1008.75 1008.87 1009.03 1009.19 1009.39 1009.55 1009.71 1009.87 1009.99 1010.15 1010.31 1010.47 1010.55 1010.63 1010.83 1011.03 1011.19 1011.31 1011.55 1011.75 1011.91 1012.07 1012.27 1012.47 1012.71 1012.83 1012.95 1013.11 1013.31 1013.43 1013.59 1013.71 1013.75 1013.91 1014.15 1014.35 1014.63 1014.91 1015.19 1015.31 1015.47 1015.59 1015.67 1015.75 1015.83 1016.03 1016.31 1016.47 1016.59 1016.71 1016.83 1016.99 1017.23 1017.51 1017.79 1018.03 1018.27 1018.47 1018.59 1018.83 1019.03 1019.19 1019.35 1019.43 1019.47 1019.47
1007.99 1008.11 1008.31 1008.47 1008.59 1008.75 1008.95 1009.03 1009.15 1009.31 1009.47 1009.67 1009.79 1009.91 1009.99 1010.07 1010.15 1010.27 1010.43 1010.63 1010.87 1011.15 1011.39 1011.59 1011.83 1012.07 1012.31 1012.55 1012.71 1012.79 1012.91 1013.03 1013.19 1013.27 1013.35 1013.47 1013.67 1013.91 1014.15 1014.43 1014.67 1014.87 1014.95 1014.95 1015.07 1015.27 1015.47 1015.59 1015.83 1016.03 1016.23 1016.43 1016.59 1016.71 1016.87 1017.03 1017.27 1017.47 1017.71 1017.91 1018.03 1018.19 1018.35 1018.59 1018.75 1018.87 1019.03 1019.11 1019.11
1007.71 1007.87 1008.03 1008.19 1008.27 1008.39 1008.55 1008.75 1008.91 1009.03 1009.15 1009.19 1009.23 1009.27 1009.31 1009.39 1009.47 1009.63 1009.83 1010.07 1010.43 1010.75 1011.03 1011.31 1011.59 1011.83 1012.03 1012.23 1012.47 1012.59 1012.71 1012.75 1012.87 1012.99 1013.07 1013.19 1013.39 1013.63 1013.87 1014.03 1014.23 1014.39 1014.47 1014.47 1014.63 1014.87 1015.15 1015.35 1015.59 1015.83 1016.07 1016.31 1016.59 1016.79 1016.95 1017.03 1017.19 1017.35 1017.51 1017.63 1017.75 1017.91 1018.03 1018.19 1018.35 1018.51 1018.59 1018.71 1018.75
1007.31 1007.43 1007.55 1007.67 1007.79 1007.91 1008.03 1008.19 1008.31 1008.47 1008.55 1008.71 1008.83 1008.83 1008.79 1008.87 1009.03 1009.27 1009.47 1009.71 1010.07 1010.47 1010.75 1011.03 1011.31 1011.59 1011.75 1011.91 1012.15 1012.31 1012.35 1012.43 1012.51 1012.63 1012.79 1012.95 1013.15 1013.35 1013.51 1013.63 1013.83 1013.95 1014.07 1014.27 1014.47 1014.75 1014.95 1015.19 1015.39 1015.59 1015.91 1016.31 1016.71 1016.95 1017.07 1017.15 1017.23 1017.31 1017.43 1017.51 1017.63 1017.75 1017.83 1017.95 1018.07 1018.19 1018.27 1018.39 1018.47
1006.87 1006.91 1007.03 1007.15 1007.31 1007.51 1007.63 1007.75 1007.75 1007.87 1007.99 1008.11 1008.11 1008.07 1008.15 1008.39 1008.71 1009.03 1009.27 1009.59 1009.91 1010.23 1010.51 1010.71 1010.95 1011.19 1011.43 1011.59 1011.75 1011.87 1011.91 1012.03 1012.11 1012.27 1012.47 1012.67 1012.87 1013.03 1013.19 1013.31 1013.51 1013.71 1013.91 1014.15 1014.35 1014.59 1014.79 1015.03 1015.23 1015.51 1015.91 1016.35 1016.75 1016.99 1017.11 1017.19 1017.19 1017.23 1017.31 1017.39 1017.51 1017.59 1017.67 1017.79 1017.91 1018.03 1018.15 1018.23 1018.31
1006.31 1006.43 1006.55 1006.75 1006.87 1007.07 1007.27 1007.43 1007.59 1007.75 1007.79 1007.75 1007.71 1007.67 1007.79 1008.07 1008.39 1008.67 1008.99 1009.35 1009.71 1009.99 1010.19 1010.39 1010.63 1010.87 1011.03 1011.19 1011.27 1011.35 1011.51 1011.67 1011.83 1011.99 1012.19 1012.39 1012.59 1012.75 1012.91 1013.11 1013.31 1013.51 1013.75 1013.95 1014.19 1014.39 1014.59 1014.87 1015.15 1015.47 1015.91 1016.27 1016.51 1016.71 1016.83 1016.87 1016.91 1016.99 1017.03 1017.19 1017.35 1017.51 1017.59 1017.67 1017.83 1017.95 1018.03 1018.15 1018.23
1005.79 1005.95 1006.19 1006.35 1006.59 1006.75 1006.95 1007.15 1007.31 1007.51 1007.59 1007.59 1007.59 1007.63 1007.75 1007.91 1008.11 1008.35 1008.67 1009.03 1009.35 1009.59 1009.83 1010.03 1010.31 1010.55 1010.71 1010.75 1010.87 1011.03 1011.23 1011.51 1011.71 1011.87 1012.03 1012.19 1012.35 1012.55 1012.75 1012.95 1013.15 1013.31 1013.55 1013.75 1013.95 1014.19 1014.47 1014.75 1015.15 1015.51 1015.79 1015.99 1016.07 1016.19 1016.27 1016.31 1016.43 1016.55 1016.75 1016.95 1017.11 1017.31 1017.47 1017.59 1017.71 1017.83 1017.95 1018.03 1018.15
1005.43 1005.59 1005.83 1006.03 1006.27 1006.47 1006.63 1006.83 1007.03 1007.19 1007.27 1007.31 1007.31 1007.39 1007.47 1007.67 1007.87 1008.15 1008.43 1008.75 1009.03 1009.31 1009.47 1009.67 1009.87 1010.03 1010.27 1010.47 1010.67 1010.87 1011.11 1011.35 1011.59 1011.75 1011.91 1012.11 1012.27 1012.47 1012.71 1012.91 1013.07 1013.23 1013.47 1013.63 1013.87 1014.07 1014.31 1014.75 1015.15 1015.39 1015.55 1015.67 1015.75 1015.75 1015.87 1015.99 1016.07 1016.23 1016.43 1016.63 1016.79 1016.99 1017.19 1017.31 1017.47 1017.63 1017.75 1017.83 1017.95
1005.19 1005.35 1005.55 1005.71 1005.91 1006.07 1006.31 1006.47 1006.63 1006.75 1006.79 1006.83 1006.91 1007.07 1007.27 1007.47 1007.67 1007.91 1008.19 1008.43 1008.67 1008.99 1009.31 1009.59 1009.79 1009.91 1010.07 1010.31 1010.51 1010.71 1010.87 1011.11 1011.35 1011.59 1011.91 1012.11 1012.31 1012.59 1012.79 1012.99 1013.15 1013.31 1013.51 1013.71 1013.91 1014.11 1014.35 1014.67 1014.87 1015.03 1015.19 1015.35 1015.51 1015.63 1015.75 1015.83 1015.91 1016.03 1016.19 1016.35 1016.51 1016.71 1016.87 1017.07 1017.23 1017.39 1017.51 1017.59 1017.71
1004.87 1005.11 1005.27 1005.35 1005.47 1005.67 1005.87 1006.03 1006.11 1006.19 1006.31 1006.43 1006.59 1006.79 1007.03 1007.19 1007.43 1007.67 1007.91 1008.15 1008.31 1008.59 1009.03 1009.55 1009.87 1009.95 1010.03 1010.15 1010.31 1010.51 1010.71 1010.87 1011.11 1011.39 1011.75 1012.11 1012.43 1012.63 1012.83 1013.03 1013.19 1013.39 1013.59 1013.79 1014.07 1014.31 1014.47 1014.47 1014.51 1014.67 1014.91 1015.19 1015.39 1015.59 1015.71 1015.75 1015.79 1015.91 1016.03 1016.19 1016.35 1016.51 1016.67 1016.83 1016.99 1017.15 1017.27 1017.35 1017.47
1004.59 1004.83 1004.95 1005.03 1005.19 1005.31 1005.43 1005.51 1005.63 1005.79 1005.95 1006.11 1006.31 1006.51 1006.71 1006.91 1007.19 1007.43 1007.67 1007.87 1007.99 1008.23 1008.63 1009.19 1009.67 1009.87 1009.91 1010.03 1010.19 1010.31 1010.47 1010.63 1010.87 1011.19 1011.59 1011.95 1012.27 1012.55 1012.79 1013.03 1013.23 1013.39 1013.59 1013.87 1014.15 1014.31 1014.31 1014.31 1014.43 1014.59 1014.87 1015.07 1015.23 1015.39 1015.51 1015.59 1015.71 1015.79 1015.95 1016.11 1016.23 1016.31 1016.43 1016.59 1016.71 1016.87 1017.03 1017.15 1017.23
1004.23 1004.47 1004.59 1004.75 1004.91 1004.95 1004.99 1005.07 1005.31 1005.47 1005.63 1005.79 1005.99 1006.19 1006.47 1006.75 1006.99 1007.19 1007.39 1007.55 1007.75 1007.99 1008.27 1008.67 1009.19 1009.59 1009.83 1009.91 1010.03 1010.07 1010.23 1010.47 1010.71 1011.03 1011.35 1011.67 1011.91 1012.19 1012.51 1012.83 1013.03 1013.27 1013.47 1013.75 1013.91 1013.99 1014.07 1014.27 1014.51 1014.71 1014.83 1014.91 1015.03 1015.19 1015.31 1015.43 1015.51 1015.63 1015.75 1015.91 1015.99 1016.11 1016.23 1016.31 1016.47 1016.59 1016.75 1016.91 1017.03
1003.79 1004.03 1004.23 1004.47 1004.59 1004.59 1004.59 1004.71 1004.91 1005.03 1005.19 1005.39 1005.67 1005.99 1006.31 1006.59 1006.79 1006.99 1007.15 1007.31 1007.51 1007.75 1007.95 1008.19 1008.59 1009.07 1009.55 1009.75 1009.87 1009.95 1010.15 1010.35 1010.59 1010.83 1011.15 1011.47 1011.75 1011.95 1012.19 1012.51 1012.87 1013.19 1013.47 1013.59 1013.63 1013.75 1013.91 1014.15 1014.39 1014.59 1014.67 1014.75 1014.83 1014.91 1015.03 1015.15 1015.23 1015.35 1015.51 1015.63 1015.75 1015.91 1016.03 1016.11 1016.23 1016.35 1016.47 1016.63 1016.87
1003.31 1003.59 1003.83 1004.03 1004.11 1004.19 1004.31 1004.31 1004.39 1004.51 1004.75 1005.11 1005.51 1005.87 1006.15 1006.39 1006.59 1006.75 1006.87 1007.07 1007.27 1007.47 1007.59 1007.83 1008.19 1008.67 1009.03 1009.31 1009.59 1009.83 1010.03 1010.23 1010.47 1010.71 1010.99 1011.31 1011.59 1011.83 1012.03 1012.39 1012.75 1013.07 1013.31 1013.39 1013.43 1013.51 1013.71 1013.91 1014.11 1014.31 1014.47 1014.59 1014.67 1014.75 1014.83 1014.91 1015.03 1015.19 1015.31 1015.47 1015.55 1015.67 1015.79 1015.91 1016.03 1016.19 1016.31 1016.43 1016.59
1002.95 1003.19 1003.43 1003.59 1003.71 1003.83 1003.87 1003.87 1003.95 1004.19 1004.51 1004.91 1005.31 1005.59 1005.87 1006.07 1006.27 1006.39 1006.59 1006.79 1007.03 1007.27 1007.47 1007.75 1008.07 1008.35 1008.67 1008.95 1009.31 1009.59 1009.87 1010.11 1010.35 1010.63 1010.87 1011.19 1011.47 1011.71 1011.91 1012.23 1012.51 1012.71 1012.87 1012.95 1013.03 1013.19 1013.35 1013.55 1013.75 1013.91 1014.15 1014.35 1014.47 1014.51 1014.59 1014.71 1014.83 1014.99 1015.11 1015.19 1015.31 1015.47 1015.59 1015.71 1015.83 1015.95 1016.07 1016.23 1016.43
1002.67 1002.91 1003.11 1003.23 1003.35 1003.43 1003.47 1003.59 1003.79 1004.03 1004.35 1004.71 1005.03 1005.31 1005.51 1005.67 1005.79 1006.03 1006.31 1006.59 1006.91 1007.27 1007.55 1007.75 1007.95 1008.23 1008.51 1008.87 1009.19 1009.43 1009.71 1010.03 1010.27 1010.47 1010.71 1010.99 1011.27 1011.55 1011.79 1012.07 1012.23 1012.27 1012.31 1012.47 1012.59 1012.75 1012.95 1013.15 1013.31 1013.51 1013.75 1014.03 1014.23 1014.31 1014.31 1014.43 1014.59 1014.71 1014.87 1014.99 1015.07 1015.23 1015.35 1015.47 1015.59 1015.75 1015.91 1016.07 1016.19
1002.47 1002.67 1002.87 1002.99 1003.07 1003.19 1003.31 1003.59 1003.83 1004.07 1004.31 1004.55 1004.75 1004.91 1005.11 1005.31 1005.51 1005.79 1006.15 1006.47 1006.79 1007.15 1007.43 1007.59 1007.79 1008.07 1008.43 1008.71 1009.03 1009.31 1009.59 1009.91 1010.11 1010.35 1010.59 1010.83 1011.03 1011.31 1011.55 1011.79 1011.91 1011.91 1011.91 1012.11 1012.27 1012.43 1012.59 1012.83 1013.03 1013.19 1013.47 1013.71 1013.91 1014.03 1014.11 1014.19 1014.31 1014.47 1014.63 1014.83 1014.91 1015.03 1015.15 1015.31 1015.47 1015.59 1015.75 1015.87 1016.03
1002.35 1002.51 1002.67 1002.83 1002.95 1003.11 1003.39 1003.71 1003.91 1004.15 1004.31 1004.47 1004.55 1004.67 1004.87 1005.11 1005.43 1005.71 1006.03 1006.31 1006.59 1006.95 1007.23 1007.47 1007.63 1007.91 1008.19 1008.51 1008.87 1009.19 1009.47 1009.79 1010.03 1010.27 1010.47 1010.71 1010.91 1011.15 1011.35 1011.51 1011.47 1011.51 1011.63 1011.87 1012.03 1012.23 1012.39 1012.59 1012.79 1012.99 1013.19 1013.47 1013.67 1013.79 1013.91 1014.03 1014.19 1014.31 1014.47 1014.63 1014.75 1014.87 1015.03 1015.19 1015.31 1015.43 1015.55 1015.67 1015.87
1002.31 1002.47 1002.63 1002.79 1002.99 1003.23 1003.47 1003.75 1003.95 1004.15 1004.31 1004.43 1004.51 1004.63 1004.83 1005.07 1005.35 1005.59 1005.87 1006.19 1006.47 1006.87 1007.19 1007.47 1007.71 1007.95 1008.23 1008.51 1008.79 1009.11 1009.39 1009.71 1009.95 1010.19 1010.39 1010.59 1010.87 1011.15 1011.27 1011.27 1011.19 1011.23 1011.43 1011.59 1011.79 1011.95 1012.15 1012.31 1012.51 1012.71 1012.95 1013.23 1013.47 1013.59 1013.75 1013.95 1014.07 1014.23 1014.35 1014.55 1014.67 1014.83 1014.95 1015.07 1015.19 1015.31 1015.43 1015.59 1015.75
1002.31 1002.47 1002.71 1002.87 1003.11 1003.35 1003.59 1003.83 1004.03 1004.19 1004.31 1004.47 1004.59 1004.75 1004.91 1005.07 1005.31 1005.51 1005.79 1006.15 1006.51 1006.87 1007.23 1007.59 1007.87 1008.15 1008.39 1008.63 1008.95 1009.19 1009.35 1009.59 1009.83 1010.11 1010.35 1010.59 1010.83 1010.95 1010.99 1010.95 1010.91 1011.03 1011.15 1011.31 1011.47 1011.59 1011.75 1011.99 1012.19 1012.43 1012.75 1013.11 1013.35 1013.59 1013.75 1013.91 1013.99 1014.15 1014.31 1014.47 1014.63 1014.75 1014.87 1014.99 1015.11 1015.19 1015.31 1015.47 1015.63
1002.27 1002.47 1002.67 1002.87 1003.15 1003.35 1003.59 1003.79 1003.99 1004.19 1004.35 1004.47 1004.63 1004.79 1004.95 1005.11 1005.31 1005.55 1005.79 1006.11 1006.51 1006.87 1007.27 1007.55 1007.87 1008.11 1008.35 1008.59 1008.95 1009.19 1009.31 1009.47 1009.75 1010.03 1010.31 1010.51 1010.63 1010.67 1010.63 1010.59 1010.59 1010.71 1010.83 1010.91 1011.07 1011.23 1011.43 1011.63 1011.91 1012.23 1012.63 1013.03 1013.31 1013.47 1013.67 1013.79 1013.91 1014.07 1014.27 1014.43 1014.59 1014.75 1014.87 1014.95 1015.07 1015.19 1015.31 1015.43 1015.55
1002.19 1002.35 1002.59 1002.87 1003.11 1003.31 1003.51 1003.71 1003.91 1004.07 1004.27 1004.43 1004.59 1004.75 1004.87 1005.07 1005.31 1005.51 1005.75 1006.03 1006.39 1006.79 1007.19 1007.51 1007.79 1008.07 1008.31 1008.59 1008.91 1009.19 1009.39 1009.59 1009.83 1010.07 1010.31 1010.47 1010.47 1010.47 1010.47 1010.43 1010.31 1010.35 1010.47 1010.67 1010.79 1010.95 1011.15 1011.43 1011.75 1012.19 1012.55 1012.87 1013.15 1013.35 1013.51 1013.71 1013.87 1014.03 1014.19 1014.39 1014.59 1014.75 1014.91 1015.03 1015.11 1015.23 1015.31 1015.47 1015.55
1002.03 1002.27 1002.47 1002.75 1003.03 1003.23 1003.39 1003.59 1003.75 1003.91 1004.03 1004.27 1004.47 1004.63 1004.83 1005.03 1005.19 1005.43 1005.63 1005.91 1006.19 1006.59 1007.03 1007.35 1007.75 1008.07 1008.39 1008.67 1008.99 1009.27 1009.55 1009.75 1009.99 1010.15 1010.27 1010.31 1010.31 1010.27 1010.31 1010.31 1010.19 1010.19 1010.31 1010.59 1010.79 1010.95 1011.19 1011.43 1011.75 1012.11 1012.43 1012.71 1012.95 1013.19 1013.35 1013.55 1013.75 1013.91 1014.11 1014.31 1014.59 1014.87 1015.03 1015.15 1015.23 1015.31 1015.47 1015.59 1015.59
1001.99 1002.15 1002.35 1002.59 1002.79 1003.03 1003.19 1003.35 1003.51 1003.71 1003.91 1004.11 1004.35 1004.59 1004.75 1004.99 1005.19 1005.47 1005.67 1005.91 1006.19 1006.59 1006.91 1007.23 1007.59 1008.03 1008.47 1008.83 1009.11 1009.35 1009.63 1009.87 1009.99 1010.03 1010.11 1010.15 1010.07 1010.11 1010.19 1010.23 1010.19 1010.23 1010.43 1010.67 1010.87 1011.07 1011.27 1011.51 1011.79 1012.07 1012.31 1012.55 1012.75 1012.99 1013.19 1013.35 1013.59 1013.83 1014.07 1014.31 1014.59 1014.87 1015.15 1015.31 1015.39 1015.51 1015.63 1015.75 1015.75
1001.91 1002.11 1002.31 1002.47 1002.67 1002.87 1003.03 1003.23 1003.47 1003.67 1003.91 1004.11 1004.31 1004.55 1004.79 1005.03 1005.31 1005.59 1005.83 1006.15 1006.43 1006.75 1007.03 1007.35 1007.75 1008.11 1008.47 1008.87 1009.11 1009.35 1009.59 1009.79 1009.91 1009.99 1010.03 1010.07 1010.11 1010.19 1010.27 1010.31 1010.35 1010.47 1010.63 1010.79 1010.99 1011.11 1011.27 1011.47 1011.71 1011.95 1012.19 1012.35 1012.59 1012.79 1012.99 1013.23 1013.47 1013.75 1014.03 1014.27 1014.55 1014.83 1015.07 1015.31 1015.51 1015.67 1015.75 1015.87 1015.91
Wind_Speed
8 8 7 7 7 6 6 6 6 6 6 7 7 7 7 7 7 7 7 7 7 7 7 7 7 6 7 8 9 10 11 11 11 10 10 11 11 11 10 9 9 9 9 9 8 8 7 7 6 5 4 4 5 5 5 5 5 6 6 6 6 6 7 8 8 9 9 9 7
9 9 8 7 7 6 6 6 6 6 6 6 7 7 7 7 8 8 8 8 7 7 7 6 7 7 8 9 10 10 11 11 11 11 11 11 11 11 10 9 9 9 9 9 9 8 7 7 6 5 4 4 4 5 5 5 6 6 7 8 6 6 6 7 8 8 9 8 7
10 10 9 8 8 8 8 8 7 8 8 7 7 7 7 7 7 7 8 8 8 7 7 6 7 8 9 9 9 10 10 11 12 11 11 11 11 10 10 9 9 9 9 8 8 8 7 7 7 6 5 5 5 6 6 5 5 6 7 8 6 5 5 6 6 6 6 5 6
11 11 10 10 11 11 10 9 9 10 9 8 7 7 7 7 7 7 7 7 7 7 7 7 7 8 8 9 9 10 10 11 11 11 11 11 11 10 9 8 8 8 8 7 8 7 7 7 6 5 5 5 6 6 6 5 5 5 6 6 4 5 5 5 5 5 5 5 5
12 12 11 11 12 12 12 10 11 10 9 8 7 7 7 7 7 7 7 7 7 8 8 8 8 8 8 9 10 10 11 11 11 11 11 11 11 9 8 7 7 7 7 6 7 7 7 7 6 5 5 5 5 5 5 5 6 5 5 4 4 4 4 4 4 4 4 4 4
13 13 12 12 12 12 11 10 11 10 9 8 9 9 9 8 8 8 8 9 9 9 9 8 8 8 8 9 10 10 11 11 10 10 11 11 10 9 8 7 7 6 6 6 6 6 6 7 5 5 5 4 4 4 5 6 6 5 5 4 4 4 4 4 4 4 4 4 5
13 13 13 13 12 12 11 11 10 9 9 9 10 11 11 10 10 10 11 10 9 8 8 7 7 8 9 9 10 10 10 10 10 10 10 10 9 8 8 7 6 6 6 6 6 6 6 6 5 5 5 4 4 4 5 6 6 6 5 5 4 3 4 4 3 3 4 5 6
13 13 13 13 12 12 12 12 11 10 9 9 10 12 13 13 12 12 11 10 9 8 8 7 9 10 10 10 10 10 10 11 10 10 9 8 8 8 7 7 6 7 7 7 7 7 7 6 5 5 5 4 4 5 5 7 7 7 7 6 4 4 3 3 3 3 4 6 7
12 13 13 13 13 12 12 12 12 11 10 10 11 12 12 12 13 12 11 10 10 9 8 8 10 11 11 11 11 10 10 10 11 10 9 8 8 8 8 7 8 8 8 8 8 8 8 6 5 5 5 5 5 5 6 8 8 8 7 6 5 4 3 3 3 4 4 5 7
13 13 13 12 13 12 12 12 12 12 12 12 12 12 11 11 12 12 11 9 9 8 9 9 10 11 11 11 11 10 10 9 10 10 9 9 9 9 10 9 10 9 9 9 9 9 9 7 7 6 6 6 6 6 7 8 8 8 7 5 4 5 5 4 5 5 5 6 7
14 13 13 12 12 12 12 12 12 12 12 12 12 12 11 11 11 11 10 8 8 9 10 10 10 11 11 11 11 10 9 9 9 9 10 10 10 10 11 11 11 11 11 10 9 9 9 8 8 9 8 7 7 7 7 7 7 7 7 5 5 5 6 5 6 6 6 7 7
14 14 13 12 12 12 12 12 12 12 12 13 13 12 12 11 12 11 10 9 10 11 11 10 10 11 11 10 10 10 9 9 9 9 10 11 11 12 12 12 13 13 12 12 10 9 9 10 10 11 11 9 7 7 7 8 8 7 7 6 6 6 6 7 7 6 6 7 7
15 14 14 13 13 13 12 12 12 12 12 13 13 13 12 12 12 11 11 11 12 11 10 10 10 10 10 10 10 9 9 9 9 10 10 11 12 12 13 13 13 13 13 12 11 10 10 11 12 13 12 11 8 7 7 9 9 9 9 8 7 7 7 8 7 7 6 7 7
16 15 15 14 14 13 13 13 12 12 13 14 13 13 12 12 11 11 11 12 13 12 11 9 9 9 9 10 9 9 9 9 10 10 11 11 12 13 13 13 14 13 12 11 11 11 12 12 13 13 12 11 9 8 9 10 11 11 11 10 9 9 9 9 8 8 8 8 8
17 17 17 16 15 14 13 13 12 12 13 14 13 13 12 12 11 11 12 13 13 12 11 10 9 9 9 9 9 10 10 10 11 11 12 12 13 14 14 13 13 12 11 10 10 12 13 13 13 12 11 11 11 11 11 12 12 12 11 11 10 10 10 10 9 9 9 10 10
18 18 18 17 16 15 14 14 12 12 12 13 13 13 12 12 12 12 12 13 13 12 11 11 10 9 8 8 9 10 10 10 11 12 13 13 14 14 14 13 12 11 11 11 11 11 12 12 11 10 10 11 12 13 13 14 13 12 12 11 12 12 12 11 11 11 11 11 11
18 18 17 17 17 17 16 14 13 12 12 13 13 12 12 12 12 12 13 14 13 12 12 12 11 9 7 7 8 9 10 10 11 12 13 14 14 14 13 13 12 11 11 12 12 12 12 11 9 9 10 11 12 13 14 14 13 12 12 13 13 13 13 12 12 12 13 13 13
18 17 16 16 17 17 17 16 15 14 13 14 13 13 14 14 14 14 14 14 14 14 13 13 11 9 8 8 7 8 9 10 11 12 13 14 14 13 13 12 12 12 13 14 14 13 12 10 9 9 9 9 10 11 12 12 12 12 12 13 13 13 13 13 13 13 13 14 14
19 18 17 17 18 18 18 18 17 16 15 15 15 16 16 17 17 16 15 14 14 14 13 12 11 9 9 9 9 9 9 10 12 13 13 13 13 13 13 13 13 14 15 15 14 13 11 10 9 9 8 7 7 8 9 9 10 10 11 11 12 12 12 13 14 14 14 14 14
19 19 19 19 19 20 20 19 19 19 18 16 17 19 19 19 17 16 15 13 12 12 12 12 11 10 10 10 11 11 11 11 13 14 14 13 13 13 14 14 14 14 14 14 13 11 10 8 8 8 7 7 7 7 7 8 9 9 10 10 10 11 12 13 13 14 14 14 14
20 20 20 20 21 21 21 20 20 20 20 19 21 21 21 18 16 15 14 12 11 11 11 12 12 12 12 12 13 13 13 11 13 14 14 13 13 13 13 13 13 13 12 12 11 9 8 7 7 7 7 8 8 9 9 9 9 10 10 9 10 11 12 12 12 12 13 13 13
21 21 20 20 20 20 20 20 19 19 19 19 20 20 19 16 15 14 13 12 11 11 11 12 13 13 14 15 15 14 13 11 11 12 13 12 12 12 12 11 12 12 11 11 10 9 8 8 7 8 9 10 11 12 12 11 11 11 11 12 12 12 13 12 12 12 12 12 12
22 21 20 19 19 19 19 19 18 18 18 18 19 18 17 15 14 13 12 12 11 12 13 13 13 15 16 15 15 14 13 11 10 11 11 11 11 11 10 10 11 11 11 10 9 9 8 8 8 9 11 12 14 15 15 14 13 13 13 14 14 14 14 13 12 12 12 12 12
21 20 18 17 18 19 19 18 18 19 19 19 18 17 16 15 14 13 13 12 13 13 12 11 12 14 15 14 14 13 13 12 12 11 10 10 10 9 9 8 9 9 9 7 8 9 9 8 9 11 13 14 15 15 14 14 13 13 14 15 15 15 14 13 13 12 12 12 12
19 18 18 17 19 19 19 19 19 20 20 20 19 18 16 15 14 13 13 13 13 12 10 9 10 11 12 13 13 13 13 13 13 12 10 9 8 8 8 7 7 7 6 6 8 10 11 11 12 12 12 12 12 12 12 13 13 14 14 14 14 14 14 14 13 13 13 13 13
17 17 18 19 20 21 21 21 21 21 21 20 19 18 17 16 14 13 13 14 13 11 9 9 10 10 11 11 12 13 13 12 12 12 11 10 9 8 7 7 6 6 6 7 10 13 15 17 16 14 12 11 11 11 11 11 12 13 13 13 13 13 13 13 13 13 13 13 13
17 17 17 19 20 21 22 22 21 21 20 20 19 18 17 16 14 14 14 14 13 11 9 9 10 10 10 10 12 13 13 11 11 11 12 11 11 11 10 8 7 6 7 9 13 17 19 20 18 15 13 11 11 11 10 10 11 11 12 12 12 12 13 13 14 14 13 12 12
17 17 17 18 19 21 23 23 22 21 21 20 19 18 17 15 15 15 15 15 13 11 9 10 9 8 8 8 11 13 13 12 11 11 12 12 13 13 13 10 9 8 8 11 16 18 19 18 16 16 15 13 12 11 11 10 10 10 11 11 11 12 13 14 13 13 12 12 11
18 17 17 18 19 21 23 23 23 23 22 21 19 18 16 15 15 15 15 15 13 12 10 9 8 8 8 9 11 11 12 12 10 10 11 12 13 14 14 12 10 9 9 12 15 16 16 16 17 17 17 15 12 10 9 9 9 9 9 9 10 11 12 13 12 12 11 11 10
17 17 17 19 20 21 22 23 24 23 22 19 18 17 16 16 16 16 16 15 14 12 10 8 8 9 10 12 11 11 10 10 9 10 11 13 13 13 13 12 10 9 10 12 14 14 16 17 18 18 18 17 14 11 9 8 8 8 8 8 10 11 12 12 12 12 11 10 10
16 16 17 19 20 20 21 22 23 22 21 18 17 17 17 17 17 17 16 15 12 9 7 8 10 11 12 12 11 11 10 9 9 11 12 14 13 12 12 11 10 10 10 12 14 15 17 19 20 20 19 19 15 12 9 8 8 8 8 9 10 11 12 12 12 11 11 10 10
16 16 16 18 19 20 20 20 20 19 19 18 18 17 17 18 18 17 14 11 9 7 7 8 11 12 12 11 11 11 11 11 11 12 13 14 13 12 11 9 10 10 10 13 15 17 18 19 20 20 20 20 16 14 12 11 10 9 9 10 11 11 11 10 10 11 11 11 11
15 15 15 17 18 18 17 16 15 15 15 16 17 17 17 17 16 14 13 9 8 8 9 10 12 13 13 12 11 11 12 12 12 13 13 13 12 11 10 9 9 9 10 13 15 17 18 19 19 20 21 21 17 15 14 13 10 9 9 9 10 10 10 10 10 10 11 11 11
13 14 14 15 15 15 13 12 11 11 12 13 15 15 16 15 14 13 11 9 8 8 8 9 11 11 11 11 11 12 12 11 12 13 13 12 11 10 9 9 8 8 9 12 14 16 17 18 19 20 21 21 16 14 13 13 10 9 8 9 9 9 9 10 10 10 11 11 10
11 12 12 12 11 11 10 9 9 9 10 11 12 12 13 13 13 12 10 8 7 7 7 7 7 8 9 9 10 11 12 12 13 13 12 11 10 9 10 11 9 8 10 13 14 16 17 18 19 20 19 17 13 11 11 12 10 10 9 9 8 8 8 9 9 9 9 9 8
9 9 9 9 8 8 8 8 8 8 9 10 10 9 9 9 9 9 8 7 7 7 8 7 7 8 8 9 9 10 12 13 13 13 12 11 11 11 12 12 10 9 11 14 16 17 18 19 19 19 17 13 9 8 9 9 9 9 9 9 8 8 8 8 7 7 7 7 7
8 8 8 8 8 8 8 8 8 8 9 9 8 7 8 8 7 7 7 7 8 9 9 9 9 9 10 10 9 9 10 13 13 13 13 13 13 13 13 12 10 10 11 14 16 18 18 18 18 16 13 9 8 7 7 7 7 8 8 8 7 6 5 5 5 5 5 5 6
7 8 9 9 9 9 9 9 9 10 10 9 7 7 7 7 7 6 7 8 9 10 10 9 9 9 10 11 11 11 11 11 12 13 14 14 13 12 11 11 11 10 10 13 15 16 17 16 15 14 12 9 8 8 7 7 7 7 7 6 5 4 3 2 3 3 3 3 5
9 10 10 11 11 10 10 10 11 11 10 9 7 7 7 7 6 7 8 9 9 10 11 11 10 10 10 10 10 10 10 11 12 13 14 14 12 11 10 11 11 9 8 10 12 13 13 13 13 13 12 9 8 8 7 6 7 6 5 5 4 3 3 3 3 3 3 3 5
10 11 12 12 12 12 12 11 11 11 10 9 9 8 8 7 7 7 8 8 9 10 10 11 11 11 10 10 10 10 11 12 13 13 12 11 10 9 9 9 9 7 5 7 9 10 11 12 13 14 13 9 8 7 7 6 6 6 5 5 5 4 4 3 3 3 3 4 4
10 11 12 12 12 12 12 12 11 10 9 9 9 9 7 7 7 7 7 7 8 9 9 9 11 11 11 10 9 10 11 12 11 9 8 6 5 4 4 5 4 2 1 4 7 9 11 12 14 15 14 10 9 7 7 6 6 6 6 6 5 5 4 4 4 4 4 4 4
Wind_Direction
194 192 190 190 191 194 197 199 196 192 191 191 193 194 194 195 198 200 201 200 202 205 206 207 205 204 200 194 192 194 198 202 202 202 202 202 203 202 200 196 193 190 189 190 188 186 186 189 186 184 185 190 197 203 206 201 190 189 193 197 198 192 187 186 189 187 185 184 185
199 196 193 190 192 195 198 200 198 196 195 195 195 196 196 196 200 202 202 202 204 205 206 207 205 202 199 195 193 194 198 201 203 204 205 206 206 203 200 197 195 192 190 189 188 187 187 185 184 185 188 191 194 202 207 204 192 190 194 199 197 190 187 191 194 191 188 187 185
202 199 196 193 194 196 199 202 201 199 198 199 198 198 198 199 202 204 205 205 205 205 206 208 205 202 198 195 195 196 199 202 203 204 207 209 208 205 202 198 196 194 192 191 190 189 188 184 186 189 192 193 195 202 206 204 192 190 195 200 195 189 188 197 195 192 189 190 184
204 202 200 198 197 198 200 202 201 200 199 200 200 200 201 203 204 206 207 206 205 205 207 208 206 201 198 195 196 198 201 202 202 204 207 210 209 206 203 198 196 195 194 192 192 190 188 184 189 193 195 193 196 201 203 197 189 192 197 200 191 187 190 197 192 189 189 192 187
207 206 204 202 201 201 203 204 203 202 201 201 201 203 205 206 207 208 208 207 207 207 207 205 204 202 198 195 196 198 201 202 202 204 207 210 209 206 200 195 194 193 191 190 191 189 187 185 192 196 196 192 195 199 198 184 185 191 198 197 192 191 193 194 189 187 187 188 187
209 209 208 207 204 204 206 207 206 204 203 202 204 206 208 208 208 208 209 210 210 207 203 200 202 202 199 194 195 197 200 202 203 205 206 208 207 203 197 193 192 189 186 185 188 188 187 187 196 199 196 189 194 194 186 172 180 188 195 195 197 196 194 193 187 183 181 182 183
210 210 211 210 206 206 207 209 208 207 206 206 207 209 210 210 209 209 210 211 210 206 201 197 201 202 201 196 196 198 199 201 202 203 204 205 203 198 192 187 184 183 181 180 183 186 188 188 197 201 198 188 191 188 180 170 176 185 193 198 196 192 190 193 182 177 178 182 181
211 212 212 211 208 207 208 209 209 208 208 210 211 212 212 212 212 211 210 211 211 207 203 200 202 203 203 200 199 199 199 200 200 200 200 199 196 190 184 177 177 179 180 178 178 182 186 187 197 200 198 191 191 186 179 171 176 184 194 199 194 189 185 182 171 174 181 184 185
211 212 212 213 211 209 208 208 209 210 211 214 215 215 214 214 214 214 212 212 212 210 206 203 203 203 203 203 202 200 199 199 198 197 194 190 187 183 179 172 176 180 181 178 177 179 182 185 197 200 199 193 193 188 180 174 179 187 194 198 190 183 176 166 161 169 182 188 191
210 210 211 212 212 210 209 208 210 211 214 217 218 217 216 216 217 217 216 215 214 213 211 209 203 202 202 204 203 201 198 197 196 193 189 186 184 183 183 180 181 183 184 182 178 178 180 185 196 201 200 194 192 186 181 177 182 189 195 198 188 179 172 164 161 168 180 191 195
210 209 209 210 211 210 208 208 211 214 215 218 219 219 218 218 219 220 220 219 217 217 216 212 204 201 202 204 204 202 197 193 192 189 186 183 184 186 188 187 186 187 187 185 180 180 183 189 196 200 200 195 191 185 179 177 185 192 198 201 190 183 178 176 171 172 178 186 192
210 209 209 209 209 208 208 209 213 215 217 219 220 220 219 220 220 221 221 221 221 220 219 213 206 203 203 205 204 201 196 190 188 187 185 183 184 187 190 191 191 190 189 186 183 183 188 194 197 199 199 194 190 182 177 175 184 193 198 198 190 187 187 190 184 181 178 176 182
210 210 209 208 207 206 207 210 213 215 217 219 220 220 220 221 220 219 220 222 223 223 221 215 209 206 205 205 202 198 194 188 186 186 186 185 185 188 191 194 193 193 191 189 186 188 192 197 198 199 198 192 186 178 174 174 183 191 194 193 189 191 195 197 193 187 179 172 176
210 210 209 208 206 206 207 210 213 216 217 219 220 220 221 222 219 218 218 221 224 224 222 217 212 209 207 204 199 195 190 186 184 185 187 187 186 189 192 196 194 193 192 190 189 192 196 200 200 199 195 186 178 174 175 179 187 191 192 189 189 194 201 203 197 190 184 179 178
210 210 209 208 207 207 208 210 213 215 217 219 219 219 219 221 218 216 217 221 223 224 222 218 216 211 206 200 195 190 186 183 183 185 187 189 189 191 193 196 194 192 190 190 193 197 200 203 202 198 191 181 176 176 180 187 192 193 192 187 189 196 204 207 200 195 192 188 184
212 211 210 208 207 208 209 210 213 215 217 219 219 219 219 221 219 216 216 218 221 221 221 219 217 212 204 196 190 185 183 183 184 186 189 192 193 193 193 193 192 190 190 192 198 202 205 206 202 196 189 184 179 180 184 190 194 194 192 188 191 198 204 205 201 198 197 194 190
215 213 211 209 209 209 210 211 213 215 217 219 219 219 219 220 220 217 215 215 217 218 218 218 215 209 200 192 187 184 183 185 187 189 191 194 194 193 191 189 189 189 192 196 203 207 208 206 199 193 190 189 186 185 187 190 192 192 191 190 193 198 201 201 199 199 198 197 195
217 215 213 211 211 212 213 214 215 216 217 218 218 219 219 219 219 217 215 213 212 213 214 215 212 205 196 190 188 186 186 188 190 192 194 195 194 191 188 187 191 195 199 202 205 207 206 202 194 190 189 191 191 191 190 191 191 191 191 192 195 198 200 200 199 199 199 198 198
217 216 214 212 212 213 214 215 217 218 218 218 219 220 220 218 217 216 214 211 209 208 208 209 206 201 194 188 188 188 189 191 192 193 194 194 192 190 188 189 195 200 203 204 204 203 200 194 187 184 184 188 193 194 193 191 191 191 192 194 197 200 202 202 201 201 201 201 201
215 214 213 212 212 213 214 215 217 217 216 217 221 223 223 221 219 216 214 210 204 202 202 202 200 197 194 190 189 191 193 193 193 194 194 194 192 192 192 192 196 200 202 202 202 199 194 185 177 174 174 180 190 195 195 191 190 191 193 197 201 205 207 207 205 205 205 204 203
215 214 213 212 212 213 214 216 217 217 217 218 221 223 223 221 218 216 214 212 205 199 197 198 197 197 196 194 193 194 195 194 193 193 194 193 193 193 194 194 195 197 199 199 196 190 180 167 162 162 167 177 189 194 195 191 190 191 195 200 206 211 213 213 211 210 209 207 206
215 215 214 212 212 212 213 215 217 218 220 222 224 225 225 220 215 211 210 211 207 203 199 199 200 201 201 199 197 196 195 193 193 194 193 191 191 192 192 191 192 193 194 192 185 173 160 150 152 161 173 185 192 195 194 191 191 192 196 202 208 213 215 216 215 213 212 210 210
215 215 214 213 212 212 212 213 214 217 220 223 226 226 225 220 213 207 203 204 206 204 203 203 206 207 207 203 198 195 193 192 194 194 193 190 188 187 186 186 187 188 187 183 171 159 149 146 159 175 187 195 197 197 195 193 193 195 199 204 209 213 215 216 216 215 214 214 214
214 214 213 212 212 212 212 212 213 215 218 221 223 224 222 218 211 203 198 199 202 203 204 206 208 208 206 202 198 195 193 192 193 193 192 188 184 181 178 178 180 180 177 170 161 155 154 160 179 191 198 202 202 201 200 198 198 200 204 207 211 214 217 218 216 215 215 216 216
212 212 211 212 211 211 211 211 212 213 215 218 219 220 219 216 209 201 195 193 195 198 203 213 214 211 206 202 199 197 195 193 192 190 186 182 176 171 168 169 170 169 164 157 155 160 169 184 194 200 202 203 205 207 207 206 207 208 209 211 213 216 218 219 218 217 216 217 217
210 210 210 211 211 211 211 211 212 214 215 216 217 217 216 214 209 201 194 190 188 190 199 217 220 214 207 202 200 199 198 195 190 184 178 175 170 166 163 162 162 161 160 161 167 177 188 198 200 199 199 201 204 208 212 214 213 213 213 213 214 215 217 218 218 218 217 218 218
208 208 209 211 212 212 212 212 213 214 215 215 215 215 214 213 208 202 196 192 189 189 196 213 219 215 207 201 199 199 198 195 187 180 176 174 171 168 165 164 166 167 171 177 186 195 201 205 201 197 196 200 204 208 212 216 215 214 214 214 215 215 216 218 219 218 218 218 218
207 206 207 208 211 213 214 214 214 214 215 215 214 213 212 210 208 204 200 197 195 194 198 207 211 210 205 202 200 199 196 191 185 181 178 175 171 169 167 168 173 178 185 192 200 205 207 205 201 198 199 202 206 210 213 215 214 213 212 213 214 215 217 219 219 219 218 217 216
205 203 203 205 209 212 214 215 215 215 215 215 214 213 212 210 209 207 205 202 200 199 201 203 200 197 197 201 200 197 193 188 183 177 172 171 170 168 166 167 173 184 198 205 209 209 207 202 201 202 204 206 209 212 214 214 213 211 211 211 213 215 217 219 220 219 217 214 214
204 201 201 203 207 210 213 215 215 215 214 213 212 211 210 209 209 209 208 207 205 204 201 194 187 187 191 195 193 190 187 184 175 167 164 165 167 166 165 165 174 190 204 209 207 204 200 198 201 204 207 209 212 215 216 215 212 210 211 213 214 215 217 218 218 217 216 213 212
205 201 201 203 205 208 211 213 214 214 214 212 210 209 209 209 209 209 209 208 207 202 192 180 178 182 185 185 183 182 180 175 166 162 162 164 165 165 166 171 186 199 205 201 197 195 195 197 200 203 206 208 211 214 215 213 211 210 211 214 215 215 215 216 215 215 214 212 210
207 203 202 204 207 209 210 212 213 213 213 211 209 208 208 209 209 208 207 205 199 188 176 174 177 179 179 177 177 177 174 168 165 164 164 164 166 168 173 185 202 210 207 195 191 190 192 195 199 201 204 205 208 211 214 214 211 211 212 215 215 214 213 212 212 212 212 212 210
211 207 205 206 209 210 210 210 210 210 210 209 208 207 207 208 207 206 204 200 190 180 175 177 177 177 175 173 173 172 170 166 165 164 164 166 168 172 180 197 214 219 209 192 188 189 192 195 198 201 202 202 205 209 213 215 213 212 213 215 215 213 210 208 209 210 211 211 210
214 210 208 209 210 210 208 206 205 205 205 206 206 205 204 203 203 202 200 197 187 179 176 178 176 175 172 169 168 167 166 165 165 166 167 168 171 180 193 209 219 216 202 188 186 189 192 197 200 202 202 200 203 207 212 214 214 214 213 214 213 210 207 206 208 209 210 210 210
216 212 209 209 208 205 201 197 196 196 198 202 203 202 200 198 198 198 195 189 178 170 167 169 168 165 164 163 163 163 162 163 165 167 169 171 179 194 209 221 222 209 191 184 186 189 194 198 201 202 202 199 202 207 210 212 213 214 213 211 210 208 206 206 208 209 209 208 207
214 207 202 198 194 188 183 180 180 183 188 193 195 194 193 192 192 189 182 169 159 156 156 156 155 156 158 160 161 162 163 164 166 168 172 178 190 203 215 225 222 206 189 184 187 191 194 198 201 201 199 196 199 204 208 210 213 213 211 209 208 206 204 205 206 206 206 205 203
201 190 181 173 168 165 163 162 165 170 177 182 182 181 180 180 179 172 161 150 148 150 151 151 153 158 161 162 164 166 167 165 167 172 180 189 198 207 216 224 221 209 194 188 190 192 195 197 198 195 190 187 192 198 203 207 211 212 210 208 205 201 198 197 195 195 195 195 194
175 165 159 155 154 153 154 156 162 167 172 173 171 168 166 164 161 156 152 149 150 151 151 152 156 161 163 162 163 166 169 169 174 181 190 199 205 210 217 223 223 214 200 190 191 192 193 194 189 183 178 179 187 193 197 203 207 208 205 199 189 175 159 148 153 156 160 164 169
158 154 152 152 154 155 158 162 166 169 169 166 161 158 155 153 152 152 152 152 152 152 153 155 158 160 161 160 161 166 172 178 185 192 199 205 209 212 216 222 224 219 204 188 188 190 189 186 178 173 171 177 184 190 194 198 201 199 192 174 152 127 102 90 95 97 99 104 128
155 154 155 156 159 161 164 167 169 168 164 159 155 153 151 148 145 145 146 147 148 150 152 155 156 158 159 159 163 171 180 189 195 200 204 209 210 210 213 221 225 221 201 177 181 184 184 180 174 172 173 179 185 189 192 195 194 187 174 154 140 125 108 92 87 84 82 80 98
156 157 158 161 163 165 166 167 165 162 158 153 152 149 145 139 137 137 139 141 144 147 149 151 154 156 159 162 170 180 188 194 197 200 203 207 204 204 209 222 230 225 165 155 175 182 184 182 178 177 178 183 187 190 191 193 190 181 169 154 145 139 130 117 101 92 87 85 89